Overview Statistics Trail Chart Weather Telemetry Raw packets
 

This is the latest recevied weather packets stored in our database for station/object DC9VQ-13. If no packets are shown the sender has not sent any weather packets the latest 10 day(s).

<< 29 30 31 32 33 34 35 >>
Time Temp. Humidity Pressure Rain* Wind** Luminosity Snow
1788192117 21.11° C 76% 1015.1 hPa 0 mm - - -
1788191577 20.56° C 79% 1014.9 hPa 0 mm - - -
1788190944 20° C 78% 1015.1 hPa 0 mm - - -
1788190342 20° C 78% 1015.1 hPa 0 mm - - -
1788189800 20° C 79% 1015 hPa 0 mm - - -
1788189108 20° C 79% 1015 hPa 0 mm - - -
1788188536 20° C 80% 1015 hPa 0.51 mm - - -
1788188325 20.56° C 81% 1014.9 hPa 0.51 mm - - -
1788187001 20.56° C 84% 1014.8 hPa 1.52 mm - - -
1788186459 20.56° C 83% 1014.9 hPa 1.52 mm - - -
1788185797 20.56° C 81% 1015.2 hPa 1.52 mm - - -
1788185195 21.11° C 77% 1015.3 hPa 1.02 mm - - -
1788184593 22.22° C 73% 1015.4 hPa 0.76 mm - - -
1788184007 22.78° C 66% 1015 hPa 0 mm - - -
1788183449 22.78° C 65% 1014.6 hPa 0 mm - - -
1788183149 22.78° C 65% 1014.7 hPa 0 mm - - -
1788182215 22.78° C 67% 1014.7 hPa 0 mm - - -
1788181914 22.22° C 67% 1014.8 hPa 0 mm - - -
1788181011 22.22° C 67% 1015.1 hPa 0 mm - - -
1788180469 22.22° C 67% 1015.2 hPa 0 mm - - -
1788179837 22.22° C 66% 1015 hPa 0 mm - - -
1788179234 21.67° C 68% 1015 hPa 0 mm - - -
1788178572 21.67° C 72% 1015.1 hPa 0 mm - - -
1788177971 21.67° C 74% 1015.1 hPa 0 mm - - -
1788177369 21.67° C 73% 1015.3 hPa 0 mm - - -

* Rain latest hour (hover to see other rain measurements)
** Current wind speed in m/s (hover to see current wind gust speed)